Tracking 35331 objects as of 16-Sep-2026
HD Live streaming from Space Station
objects crossing your sky now

COSMOS 880 DEB


COSMOS 880 DEB is no longer on orbit


NORAD ID: 11205
Int'l Code: 1976-120AG
Launch date: December 9, 1976
Source: Commonwealth of Independent States (former USSR) (CIS)
Launch site: PLESETSK MISSILE AND SPACE COMPLEX (PKMTR)
Decay date: 1990-07-11

Note: This is SATELLITE DEBRIS
Your satellite tracking list
Your tracking list is empty




NASA's NSSDC Master Catalog

Two Line Element Set (TLE):
1 11205U 76120 AG 90192.39707770  .10262831 +30200-4 +21122-3 0  9999
2 11205 065.8047 124.3788 0013391 258.2830 101.6167 16.45825119751163
Source of the keplerian elements: AFSPC